Weather in Itu

Brazil     23°15′53″S   47°17′14″W
temp.,
°C
wind,
m/s
gust,
m/s
humid.,
%
clouds,
%
prec.,
mm/h
press.,
hPa
HPBL,
m
22 january, fri
fri2200:00+20se3890100 0.6 1017196
03:00+20ese2391100 0.6 1016107
06:00+20ese349394 1.9 101891
09:00+24ne477394 2.3 1019641
12:00+27n3460100 2.8 10181286
15:00+29ene235088 2.9 10161952
18:00+24se5107697 0.1 1016337
21:00+22se397698 0.2 1018294
23 january, sat
sat2300:00+21se238290 0.0 101956
03:00+20se238695 0.0 101751
06:00+21e2279100 0.0 101863
09:00+25ne3668100 0.0 1019759
12:00+28n345495 0.0 10171439
15:00+29nne234765 0.0 10151939
18:00+24se51075100 0.4 1015411
21:00+21se3781100 0.7 1017203
24 january, sun
sun2400:00+20ese228755 0.0 101744
03:00+19ene228663 0.0 101535
06:00+19ene2386100 0.0 101555
09:00+24nne3568100 0.0 1016584
12:00+28nnw3456100 0.0 10151347
15:00+29nw235290 0.0 10121657
18:00+26ene1269100 1.0 101242
21:00+22ese2382100 1.6 101439
25 january, mon
mon2500:00+20ese238997 1.1 101447
03:00+20e228698 1.5 101324
06:00+19ene2287100 0.0 101424
09:00+25nne477191 0.0 1015596
12:00+28n455667 0.0 10131444
15:00+29nw345179 0.0 10101866
18:00+27nw2368100 0.3 1011141
21:00+22se3378100 0.9 101363
26 january, tue
tue2600:00+21ene2385100 0.4 101442
03:00+20ene2285100 0.4 101227
06:00+20ene2287100 0.0 101327
09:00+25nne4672100 0.0 1014541
12:00+28nnw5661100 0.1 10131316
15:00+29nw345595 0.2 10101554
18:00+28nw226420 0.0 101073
21:00+24n227645 0.1 101224